Home > Time Zones > World Clock > Weather > Norway > Alta > Past weeks

Flag for Norway Weather past 2 weeks in Alta, Norway

Now
53 °F

Cool.


Feels Like: 52 °F
Forecast: 51 / 61 °F
Wind: 5 mph from Southwest

Location: Alta Lufthavn

Current Time: Aug 2, 2014 at 1:35:06 AM

Latest Report: Aug 2, 2014 at 12:00 AM


Visibility: N/A

Pressure: 29.75 "Hg

Humidity: 89%

Dew point: 50 °F

Location of AltaLocation

Historic Weather in Alta — Graph

°F

Alta temperature yesterday

Maximum temperature yesterday: 66 °F (at 4:00 PM)
Minimum temperature yesterday: 54 °F (at 3:00 AM)
Average temperature yesterday: 60 °F

Past Weeks' High & Low Weather Summary

 TemperatureHumidityPressure
High71 °F (Jul 27, 3:00 PM)97% (Jul 20, 5:00 AM)30.32 "Hg (Jul 20, 5:00 AM)
Low51 °F (Jul 29, 4:00 AM)50% (Aug 1, 4:00 PM)29.32 "Hg (Jul 31, 11:00 AM)
Average59 °F76%30.02 "Hg
* Reported Midnight between Jul 17 and Jul 18 — Midnight between Aug 1 and Aug 2, Alta, Weather by CustomWeather, © 2014

Note: Actual official high and low records may vary slightly from our data, if they occured in-between our weather recording intervals... More about our weather records

Advertising

Alta weather history for previous 24 hours

 ConditionsComfort  
Time TempWeatherWind HumidityBarometerVisibility
12:00 AM
Aug 2
53 °FCool.5 mph89%29.75 "HgN/A
11:00 PM
Aug 1
55 °FCool.2 mph80%29.73 "HgN/A
10:00 PM57 °FCool.2 mph75%29.72 "HgN/A
9:00 PM58 °FCool.5 mph74%29.70 "HgN/A
8:00 PM59 °FCool.2 mph73%29.70 "HgN/A
7:00 PM63 °FMild.3 mph62%29.68 "HgN/A
6:00 PM63 °FMild.5 mph65%29.66 "HgN/A
5:00 PM62 °FMild.6 mph63%29.64 "HgN/A
4:00 PM66 °FMild.2 mph50%29.62 "HgN/A
3:00 PM65 °FMild.2 mph57%29.60 "HgN/A
2:00 PM65 °FMild.6 mph55%29.59 "HgN/A
1:00 PM64 °FMild.8 mph63%29.58 "HgN/A
12:00 PM63 °FMild.7 mph68%29.56 "HgN/A
11:00 AM60 °FCool.7 mph74%29.54 "HgN/A
10:00 AM61 °FCool.7 mph74%29.50 "HgN/A
9:00 AM62 °FCool.5 mph77%29.47 "HgN/A
8:00 AM62 °FCool.1 mph76%29.47 "HgN/A
7:00 AM60 °FCool.2 mph81%29.47 "HgN/A
6:00 AM59 °FCool.2 mph81%29.44 "HgN/A
5:00 AM57 °FCool.1 mph87%29.44 "HgN/A
4:00 AM56 °FCool.2 mph91%29.41 "HgN/A
3:00 AM54 °FCool.2 mph94%29.41 "HgN/A
2:00 AM54 °FCool.1 mph94%29.41 "HgN/A
1:00 AM55 °FCool.1 mph91%29.41 "HgN/A
Weather by CustomWeather, © 2014

See weather overviewHow to use our weather pages